Location: Costa Valle Imagna
(45.8000°N, 9.5000°E)
Time: 16:41:59
(UTC+00:00)

NOSS 3-1 (C) - Pass Details

Date: 17 February 2020
Orbit: 759 x 1449 km, 63.4° (Epoch: 26 March)

Event Time Altitude Azimuth Distance (km) Brightness Sun altitude
Exits shadow 02:49:19 69° 82° (E) 1,376 4.2 -37.2°
Drops below altitude 10° 02:57:13 10° 133° (SE) 3,478 6.6 -35.9°
Sets 03:00:17 0° 136° (SE) 4,496 7.2 -35.4°
